Location: Unnamed
(51.5169°N, 0.1311°W)
Time: 19:45:45
(UTC+01:00)

Tiros 1 - Pass Details

Date: 09 August 2024
Orbit: 623 x 655 km, 48.4° (Epoch: 16 September)

Event Time Altitude Azimuth Distance (km) Brightness Sun altitude
Rises 05:45:55 0° 191° (S) 2,965 10.2 0.4°
Reaches altitude 10° 05:49:36 10° 162° (SSE) 2,061 9.7 0.9°
Maximum altitude 05:51:32 12° 138° (SE) 1,905 9.8 1.2°
Drops below altitude 10° 05:53:29 10° 113° (ESE) 2,065 10.5 1.5°
Sets 05:57:10 0° 85° (E) 2,979 12.3 2.0°
